Temperature
7 6 6 6 7 8 8 8 8 9 10 9 9 9 10 10 10 10 11 11 12 12 13 13 13 13 12 12 12 12 12 12 11 11 11 11 11 11 11 11 11 11 11 11
5 5 6 7 7 7 7 8 8 9 9 9 8 9 9 9 9 10 10 10 11 11 12 12 12 12 12 12 12 11 11 11 11 11 11 11 11 11 11 11 10 10 10 10
5 6 7 7 7 7 7 7 7 8 9 9 8 8 8 9 10 10 11 11 11 11 11 11 11 12 12 11 11 11 11 11 11 11 11 11 10 10 10 10 10 10 10 10
4 6 6 6 6 7 6 7 8 8 7 6 7 7 7 8 8 9 9 10 10 11 11 11 11 11 11 11 11 11 11 11 11 11 10 10 10 10 10 10 10 10 10 10
4 5 6 6 6 6 6 7 7 7 7 6 6 6 6 7 7 8 8 9 9 10 10 10 11 11 11 11 11 11 10 10 10 10 10 10 10 10 10 10 10 10 9 9
4 5 5 5 6 6 6 6 6 5 5 6 6 6 6 6 7 7 7 8 8 9 10 10 10 10 10 10 10 10 10 10 10 10 10 9 9 9 9 9 9 9 9 9
3 4 5 5 5 5 5 5 5 5 5 5 6 6 5 6 6 6 6 6 7 8 8 9 9 9 9 9 9 9 9 9 9 9 9 9 9 9 9 9 9 9 9 9
1 2 4 4 4 4 4 4 4 5 5 5 6 5 5 5 5 6 6 6 6 7 7 7 8 8 8 9 9 9 9 9 9 9 9 8 8 8 8 9 9 9 9 9
1 1 3 4 4 4 4 4 4 4 4 4 5 4 4 4 4 4 4 4 5 5 6 6 7 7 8 8 8 8 8 8 8 8 8 8 8 8 8 8 8 8 8 8
0 1 2 3 4 4 4 4 3 3 4 5 4 4 3 3 3 3 3 3 4 4 5 5 6 6 7 7 7 7 7 8 8 8 8 8 8 7 7 7 7 7 8 8
0 -0 1 2 2 2 2 3 3 3 3 4 4 3 3 3 3 3 3 3 3 4 4 4 5 5 6 6 6 7 7 7 7 7 7 7 7 7 7 7 7 7 7 7
-0 -1 -1 0 2 2 2 2 2 2 2 2 2 2 3 2 2 2 2 2 2 3 3 4 4 4 5 5 5 6 6 6 6 6 6 6 6 6 6 6 6 6 6 7
-0 -1 -1 -0 1 1 0 1 1 1 1 1 1 2 2 1 1 1 1 1 2 2 2 3 3 4 4 4 4 5 5 5 6 6 6 6 6 6 6 6 6 6 6 6
0 -2 -2 -2 -1 -1 -1 0 1 0 0 0 0 1 0 0 0 0 0 1 1 1 1 2 2 2 3 3 4 4 4 5 5 5 5 5 5 5 5 5 6 6 5 5
-1 -3 -2 -2 -1 -1 -1 -0 0 -0 -0 -0 0 0 -0 -1 -1 -1 -0 0 0 0 0 1 1 1 2 2 3 3 3 4 4 4 4 5 5 5 5 5 5 5 5 5
-2 -3 -3 -2 -1 -1 -1 -1 -1 -1 -0 -0 -0 -1 -1 -1 -1 -1 -1 -1 -1 -1 -1 -0 0 1 1 2 2 3 3 3 3 3 4 4 4 4 4 4 4 4 5 5
-3 -3 -3 -3 -2 -2 -2 -2 -2 -2 -2 -2 -2 -2 -2 -2 -2 -2 -2 -2 -2 -2 -1 -1 -0 0 0 1 1 2 2 2 2 3 3 3 3 3 4 4 4 4 4 4
-4 -4 -3 -3 -3 -4 -3 -3 -2 -2 -3 -2 -2 -2 -2 -2 -2 -2 -2 -2 -2 -2 -2 -1 -1 -0 -0 0 1 1 1 2 2 2 2 2 2 3 3 3 3 3 4 4
-4 -4 -4 -3 -4 -3 -3 -3 -3 -3 -3 -3 -3 -3 -3 -3 -3 -3 -3 -3 -3 -3 -2 -2 -1 -1 -0 -0 0 1 1 1 1 1 1 1 2 2 2 2 3 3 3 3
-4 -4 -4 -4 -4 -4 -4 -4 -3 -3 -4 -4 -4 -4 -4 -4 -4 -4 -4 -4 -3 -3 -3 -2 -2 -1 -1 -1 -0 0 0 1 1 1 1 1 1 1 2 2 2 2 3 3
-5 -6 -6 -6 -5 -5 -5 -4 -3 -4 -5 -5 -5 -5 -5 -4 -4 -4 -4 -4 -4 -4 -3 -3 -2 -2 -2 -1 -1 -0 -0 0 0 0 0 0 1 1 1 1 2 2 2 2
-6 -7 -6 -6 -6 -6 -5 -5 -5 -5 -5 -5 -5 -5 -5 -5 -5 -5 -5 -5 -4 -4 -3 -3 -3 -2 -2 -2 -2 -1 -1 -1 -0 -0 -0 0 0 0 1 1 1 1 1 1
-7 -7 -7 -7 -6 -6 -6 -6 -6 -6 -6 -6 -6 -5 -6 -6 -6 -6 -6 -5 -5 -5 -4 -4 -4 -3 -3 -3 -2 -2 -2 -1 -1 -1 -1 -0 -0 -0 0 0 0 0 0 0
-8 -7 -7 -7 -7 -7 -7 -6 -6 -6 -6 -6 -6 -6 -6 -6 -6 -6 -6 -6 -6 -5 -5 -5 -4 -4 -4 -3 -3 -3 -2 -2 -2 -1 -1 -1 -1 -1 -1 -1 -0 -0 -0 -0
-8 -8 -8 -8 -7 -7 -7 -7 -7 -7 -7 -6 -6 -6 -6 -6 -7 -7 -7 -6 -6 -6 -5 -5 -5 -5 -5 -4 -4 -3 -3 -3 -2 -2 -2 -2 -2 -2 -2 -2 -1 -1 -1 -1
-9 -9 -9 -8 -8 -8 -8 -8 -8 -8 -8 -7 -7 -7 -7 -7 -7 -7 -7 -7 -7 -6 -6 -6 -6 -6 -5 -5 -4 -4 -4 -3 -3 -3 -3 -3 -3 -3 -3 -2 -2 -2 -2 -2
Wind_Speed
2 3 8 11 12 9 6 8 9 8 5 6 10 12 9 6 6 7 7 8 9 9 7 6 7 8 9 9 9 9 9 8 7 6 5 5 4 3 2 4 6 8 8 9
0 8 10 7 8 9 9 9 9 6 4 6 7 10 7 7 7 8 9 9 9 8 5 6 7 8 9 10 10 9 9 9 8 6 5 4 4 3 3 3 5 6 7 8
7 6 4 6 8 10 11 11 9 6 4 3 2 7 7 5 5 5 7 8 8 10 10 8 7 8 8 9 10 10 9 9 8 7 5 5 4 3 2 2 2 4 6 7
6 5 5 6 8 8 11 8 8 6 4 5 4 6 7 5 5 6 6 6 7 7 8 8 8 8 9 9 8 8 8 8 8 8 8 8 6 5 4 3 3 3 5 6
5 4 3 7 7 7 7 5 6 6 6 5 5 5 7 3 5 7 7 6 6 6 7 8 8 9 8 8 8 8 8 7 7 8 9 8 6 4 3 3 4 3 3 5
6 4 3 4 5 4 3 1 1 1 2 8 9 7 6 4 7 4 4 4 4 4 5 5 5 6 6 6 7 7 8 7 7 7 8 8 7 6 6 5 5 4 3 3
6 5 3 2 3 2 1 3 1 2 5 8 7 7 6 3 2 3 3 3 2 2 3 4 4 5 6 7 7 7 8 7 7 7 7 7 7 8 8 7 6 5 3 3
4 6 4 3 3 4 5 6 5 5 6 4 4 7 3 2 2 2 2 2 1 2 2 2 3 4 5 7 7 7 7 7 7 7 6 6 6 6 5 6 6 6 5 4
3 6 6 6 4 3 3 5 4 3 2 2 4 2 2 5 5 5 4 3 2 1 1 1 2 3 4 5 5 7 7 6 6 7 6 6 6 5 5 5 5 5 4 4
2 6 7 6 3 2 2 2 1 3 4 4 3 2 2 3 3 3 3 1 1 1 1 2 2 2 3 4 4 4 4 5 5 6 6 5 6 5 5 5 5 5 5 4
2 3 6 4 1 2 1 0 2 3 3 3 4 3 1 2 1 1 1 1 1 2 2 2 2 2 2 3 4 3 3 3 3 4 4 4 5 4 4 4 5 5 5 5
2 1 4 5 4 2 0 0 1 2 3 2 3 3 4 2 2 2 3 3 4 4 3 3 3 3 3 3 3 3 2 2 3 3 4 4 4 4 4 4 4 4 5 5
1 1 3 6 4 4 2 3 3 2 1 1 3 2 6 7 6 5 4 4 4 5 5 5 5 4 3 2 2 2 2 2 2 3 4 3 3 4 4 4 4 4 5 4
2 0 3 5 5 4 6 7 4 1 1 2 3 3 5 8 7 6 5 5 5 5 5 6 5 4 3 2 2 1 1 1 2 2 3 4 4 4 4 3 3 4 4 5
2 2 3 6 6 3 5 6 5 2 3 3 3 3 4 6 6 5 5 5 6 6 6 6 5 4 4 4 3 2 1 0 1 2 2 3 3 3 3 3 3 3 3 4
2 2 3 4 4 2 5 7 5 3 3 3 1 3 4 5 5 5 5 5 6 6 6 6 6 5 5 4 3 3 2 1 1 1 2 1 2 2 3 3 3 3 3 3
2 2 2 4 5 3 3 5 3 1 3 1 2 5 5 6 6 4 4 5 5 5 5 5 5 4 3 3 3 2 2 1 1 1 0 1 1 2 2 2 3 3 4 3
4 3 2 2 2 1 2 3 3 1 3 4 4 5 5 4 4 4 3 5 6 6 6 5 5 5 5 4 4 3 2 2 1 1 1 0 1 2 2 2 3 3 3 3
2 2 1 1 1 2 4 5 4 2 2 5 6 7 7 6 4 4 6 6 5 5 5 4 3 3 4 4 4 3 3 2 1 1 1 1 0 1 2 2 3 2 2 2
4 2 1 0 1 2 4 9 10 2 2 7 8 8 7 6 3 4 6 6 6 5 5 5 4 4 4 5 4 3 2 2 1 1 1 1 0 1 2 2 2 1 2 3
4 4 2 0 1 2 5 10 6 2 5 8 7 6 6 4 2 4 6 6 5 5 5 5 4 4 4 4 4 3 3 2 2 1 1 1 1 1 1 1 1 1 1 2
1 2 2 1 0 3 6 6 3 3 6 6 6 5 6 5 4 4 5 5 5 6 6 6 4 4 5 4 4 4 4 4 3 2 2 2 2 1 1 1 1 1 1 2
0 1 1 1 2 3 4 3 4 4 5 5 5 5 5 5 4 5 5 5 5 5 6 5 5 5 5 6 4 4 5 4 3 2 2 2 3 2 2 1 1 1 1 1
3 2 1 1 2 4 5 5 6 5 5 6 5 5 4 4 4 4 5 5 5 6 6 6 6 6 6 7 6 5 5 4 3 3 3 3 3 3 3 2 2 1 1 1
3 3 1 2 3 5 4 7 7 7 7 6 6 5 4 4 4 4 4 5 5 5 5 5 5 5 6 6 7 6 6 5 4 3 3 3 3 2 3 3 2 2 1 0
2 2 1 3 4 3 6 7 7 7 7 7 6 7 6 5 4 4 4 4 5 5 5 5 6 6 6 6 7 7 6 5 4 3 3 3 2 2 2 2 3 5 4 5
Wind_Direction
198 189 221 218 216 221 217 223 239 241 226 203 230 246 247 227 212 217 216 207 203 205 206 190 177 171 165 165 164 165 162 161 154 150 150 150 156 155 149 143 149 151 153 152
263 240 239 233 233 240 240 244 250 268 235 214 240 255 252 230 217 212 209 209 206 201 191 187 176 169 170 171 171 170 170 167 165 164 162 155 147 155 159 143 141 150 152 157
226 249 242 233 237 237 240 233 236 246 282 245 255 277 251 243 227 224 213 206 201 195 190 185 177 175 172 175 177 177 175 171 167 157 142 128 108 102 125 152 162 155 156 159
260 268 261 243 239 229 246 234 235 231 219 242 196 252 257 225 237 230 223 207 203 197 186 180 173 174 178 180 174 169 169 167 166 160 158 157 162 169 181 175 171 162 161 160
266 286 261 246 249 230 241 238 232 231 217 242 215 223 271 211 227 227 221 213 207 194 182 180 180 180 179 175 169 166 160 161 163 165 166 166 166 167 150 148 156 170 172 170
274 286 277 261 278 240 249 283 283 257 193 235 213 197 265 221 217 222 224 221 205 188 178 179 176 164 162 160 159 161 159 162 162 163 166 169 169 161 155 163 175 181 182 182
310 298 302 317 325 297 125 130 192 230 220 236 193 191 238 259 225 198 192 209 189 153 153 159 160 157 161 162 163 162 163 167 169 168 171 175 176 173 176 179 183 183 185 194
305 296 303 320 262 232 224 180 190 208 218 249 194 205 231 325 17 68 103 116 92 98 121 121 145 161 163 163 164 166 171 173 174 175 179 178 176 181 186 185 185 189 194 197
281 281 309 316 306 192 204 222 213 186 230 233 223 235 306 15 29 34 41 53 69 98 97 98 92 132 152 154 163 172 174 174 176 178 177 177 179 181 185 185 184 188 188 188
257 279 297 311 328 327 215 207 160 184 194 228 245 230 254 326 339 354 9 19 358 43 58 54 55 77 134 145 147 150 163 172 174 175 177 180 183 185 184 182 186 186 187 182
303 265 303 334 320 305 10 264 244 208 200 191 227 244 290 233 248 292 309 358 31 51 50 46 46 58 92 102 115 128 139 147 163 174 176 174 179 180 177 184 190 189 185 181
298 240 276 275 278 299 222 242 238 213 239 204 204 246 349 8 1 14 22 26 31 34 37 40 47 63 72 86 98 122 138 152 174 173 168 174 176 174 177 188 192 185 185 187
323 31 325 329 333 2 357 346 336 299 200 185 203 244 0 19 23 22 32 28 34 40 41 41 45 52 64 67 76 98 135 161 172 167 166 166 169 174 183 192 193 189 187 188
28 150 204 237 272 300 305 314 323 359 227 246 234 273 342 360 6 5 15 28 41 50 50 42 40 39 40 44 45 48 52 141 159 162 167 175 180 184 188 190 189 189 186 185
53 244 255 271 281 287 311 317 314 279 245 226 258 273 313 331 336 346 1 23 39 38 38 33 28 23 21 23 22 16 17 41 148 160 171 188 189 184 181 184 188 181 180 184
358 245 277 278 274 322 338 338 328 308 288 250 282 302 331 337 2 6 10 19 21 18 20 18 18 20 16 7 358 359 355 357 136 154 185 192 184 182 185 187 182 176 178 181
290 252 269 272 292 320 323 335 331 23 4 342 287 292 330 349 358 354 355 8 8 9 7 8 7 3 354 347 344 338 349 20 80 97 141 174 183 189 195 187 179 183 186 180
248 256 240 270 6 257 261 346 354 11 24 10 342 334 334 325 327 352 18 19 6 3 358 353 350 352 351 349 349 352 15 45 73 72 54 44 197 200 196 190 197 200 194 188
232 214 237 229 217 272 316 341 337 304 322 356 346 345 350 356 4 8 17 17 6 356 347 338 341 348 352 354 352 6 26 33 55 48 20 349 255 211 204 206 214 211 193 193
32 59 104 318 193 245 309 323 321 288 311 354 355 351 346 1 359 321 343 356 357 0 357 353 359 10 7 353 355 14 21 32 23 353 331 321 274 223 222 221 217 220 199 199
358 7 35 310 226 267 319 329 353 74 298 325 337 343 346 345 305 305 330 350 359 358 356 2 12 13 359 352 1 10 13 1 340 347 357 3 351 313 276 241 212 183 179 175
356 351 351 5 347 287 335 2 30 299 310 326 334 341 345 345 350 353 353 354 358 0 2 7 15 10 4 4 8 6 0 348 357 11 19 14 7 10 27 63 77 119 143 153
328 236 236 217 237 308 339 343 325 325 332 333 335 337 346 348 349 356 356 355 0 5 6 8 15 13 8 5 10 8 348 348 6 27 30 26 23 21 30 58 91 105 130 152
323 334 244 270 308 331 343 356 353 349 343 335 336 339 352 348 346 352 354 359 3 6 10 12 17 16 9 5 9 4 355 0 26 44 40 40 42 34 33 37 47 88 123 142
301 325 336 286 300 331 348 351 347 350 354 354 354 356 358 356 348 350 353 358 359 3 7 12 17 16 7 6 7 4 3 13 28 38 42 39 38 40 39 33 28 30 14 175
337 318 293 272 299 304 305 328 346 353 355 354 357 359 1 5 357 358 1 359 0 4 6 12 16 16 10 9 9 4 5 17 32 33 32 33 32 32 41 43 29 25 27 29
Height
1475 1478 1476 1472 1472 1471 1472 1473 1472 1468 1466 1469 1468 1466 1464 1463 1464 1464 1465 1467 1468 1470 1473 1476 1478 1482 1485 1488 1491 1495 1498 1501 1504 1506 1509 1511 1513 1515 1518 1520 1522 1523 1525 1526
1477 1475 1469 1469 1470 1471 1471 1471 1470 1467 1465 1467 1467 1465 1462 1460 1460 1460 1461 1462 1464 1467 1470 1472 1475 1478 1481 1484 1487 1491 1494 1497 1500 1503 1506 1509 1511 1514 1516 1518 1520 1521 1523 1524
1474 1469 1466 1467 1468 1469 1468 1469 1468 1467 1465 1465 1467 1466 1461 1457 1456 1457 1458 1459 1460 1463 1465 1468 1471 1474 1477 1481 1484 1487 1491 1494 1497 1501 1504 1506 1509 1511 1513 1515 1517 1519 1521 1522
1472 1467 1466 1466 1465 1466 1466 1463 1463 1464 1468 1470 1468 1471 1459 1456 1455 1454 1455 1456 1457 1459 1461 1464 1467 1470 1473 1477 1481 1484 1488 1491 1494 1497 1500 1502 1504 1506 1509 1511 1514 1516 1518 1520
1471 1467 1465 1464 1463 1463 1462 1460 1462 1463 1466 1469 1468 1471 1461 1455 1455 1452 1452 1453 1454 1456 1458 1461 1464 1467 1470 1474 1477 1481 1484 1487 1490 1494 1496 1499 1501 1504 1507 1509 1511 1513 1515 1517
1470 1466 1465 1463 1461 1461 1460 1461 1462 1465 1467 1468 1462 1467 1462 1457 1451 1450 1450 1451 1452 1454 1456 1458 1461 1465 1468 1471 1474 1477 1480 1483 1487 1490 1492 1495 1498 1500 1503 1505 1508 1510 1512 1514
1472 1467 1464 1462 1462 1460 1461 1466 1469 1469 1467 1460 1455 1460 1459 1451 1449 1449 1450 1450 1451 1452 1454 1456 1459 1461 1464 1467 1470 1474 1477 1480 1483 1486 1488 1491 1494 1497 1499 1502 1504 1506 1508 1510
1481 1474 1465 1462 1463 1463 1461 1463 1466 1466 1461 1459 1455 1457 1456 1451 1449 1448 1449 1450 1450 1451 1453 1454 1457 1459 1461 1464 1467 1470 1473 1476 1479 1482 1485 1488 1490 1493 1496 1498 1501 1503 1505 1507
1483 1475 1465 1462 1460 1460 1461 1462 1459 1463 1461 1460 1456 1456 1454 1450 1449 1449 1450 1450 1450 1451 1451 1453 1455 1457 1459 1461 1464 1467 1470 1473 1476 1478 1481 1484 1487 1489 1492 1495 1497 1499 1502 1504
1482 1480 1468 1463 1460 1459 1460 1459 1462 1462 1460 1456 1455 1457 1458 1455 1453 1451 1450 1450 1449 1450 1451 1452 1453 1455 1457 1459 1462 1465 1468 1470 1472 1475 1478 1481 1483 1486 1489 1491 1493 1496 1498 1500
1481 1482 1474 1468 1465 1464 1462 1463 1461 1461 1459 1459 1458 1460 1455 1453 1452 1452 1451 1450 1449 1449 1450 1451 1452 1454 1455 1458 1460 1463 1465 1468 1470 1472 1475 1477 1480 1483 1485 1487 1490 1492 1494 1496
1481 1482 1479 1472 1465 1463 1463 1463 1464 1465 1462 1461 1461 1465 1455 1454 1453 1452 1451 1450 1450 1450 1450 1451 1452 1453 1455 1456 1458 1460 1463 1465 1467 1470 1472 1474 1477 1479 1481 1483 1486 1488 1490 1492
1480 1484 1483 1476 1472 1468 1467 1466 1466 1464 1463 1464 1464 1464 1457 1455 1454 1453 1452 1452 1452 1451 1451 1451 1452 1453 1454 1455 1457 1459 1460 1463 1465 1467 1469 1471 1473 1475 1477 1480 1482 1484 1486 1488
1479 1484 1486 1484 1476 1474 1472 1468 1465 1466 1467 1467 1465 1463 1462 1460 1457 1455 1454 1453 1452 1452 1452 1451 1452 1452 1453 1454 1455 1457 1459 1461 1463 1464 1466 1468 1470 1472 1474 1476 1478 1480 1482 1484
1480 1485 1482 1478 1474 1473 1472 1469 1465 1465 1466 1466 1463 1463 1463 1463 1461 1459 1456 1454 1454 1453 1453 1452 1452 1453 1453 1454 1455 1456 1457 1459 1460 1462 1463 1465 1467 1469 1471 1473 1475 1477 1478 1480
1481 1483 1481 1478 1473 1471 1472 1470 1467 1466 1465 1464 1463 1465 1464 1463 1462 1460 1458 1456 1455 1454 1453 1453 1453 1453 1452 1453 1454 1455 1456 1457 1458 1459 1460 1462 1464 1466 1467 1469 1471 1473 1475 1476
1483 1483 1482 1479 1473 1472 1475 1473 1471 1470 1470 1469 1467 1468 1465 1463 1462 1461 1460 1458 1457 1455 1454 1453 1453 1453 1452 1453 1453 1454 1454 1455 1456 1457 1458 1459 1461 1462 1464 1466 1468 1469 1471 1472
1482 1481 1481 1478 1479 1483 1480 1475 1473 1471 1471 1471 1469 1467 1465 1463 1462 1461 1460 1458 1456 1455 1454 1453 1453 1452 1452 1452 1452 1452 1453 1453 1454 1455 1455 1456 1458 1459 1461 1462 1464 1465 1467 1468
1479 1480 1480 1479 1481 1479 1477 1475 1475 1473 1472 1472 1470 1467 1465 1463 1460 1460 1460 1459 1458 1456 1455 1454 1453 1452 1451 1451 1451 1451 1451 1451 1452 1452 1453 1454 1455 1457 1458 1459 1460 1462 1463 1465
1479 1480 1482 1481 1482 1483 1482 1476 1472 1473 1473 1473 1471 1469 1466 1463 1464 1463 1460 1459 1457 1456 1455 1454 1453 1452 1451 1451 1450 1450 1450 1450 1450 1451 1452 1453 1453 1454 1455 1456 1457 1459 1460 1461
1487 1488 1489 1488 1487 1485 1483 1477 1472 1479 1480 1474 1472 1469 1467 1465 1466 1463 1461 1459 1457 1456 1455 1453 1452 1451 1451 1450 1449 1449 1448 1448 1449 1450 1450 1451 1452 1453 1453 1454 1455 1456 1457 1458
1495 1494 1493 1492 1491 1491 1483 1480 1481 1482 1477 1474 1472 1469 1467 1466 1464 1462 1460 1459 1457 1455 1454 1453 1452 1451 1450 1449 1448 1447 1447 1447 1448 1448 1449 1450 1450 1451 1451 1452 1452 1453 1454 1455
1495 1495 1494 1494 1494 1489 1485 1484 1483 1480 1477 1474 1472 1469 1467 1465 1463 1462 1460 1459 1457 1456 1454 1453 1451 1450 1449 1448 1448 1447 1446 1446 1446 1447 1448 1448 1449 1449 1449 1449 1450 1451 1452 1452
1495 1493 1493 1492 1490 1488 1486 1484 1482 1480 1477 1475 1472 1470 1467 1465 1463 1462 1460 1459 1457 1455 1454 1452 1450 1449 1448 1448 1447 1447 1446 1446 1446 1446 1446 1447 1447 1447 1448 1448 1448 1449 1449 1450
1497 1495 1494 1492 1490 1488 1486 1485 1483 1480 1477 1474 1472 1470 1467 1465 1463 1461 1460 1458 1457 1455 1453 1452 1451 1449 1448 1448 1447 1446 1445 1445 1445 1445 1446 1446 1446 1446 1446 1447 1447 1448 1448 1449
1498 1497 1496 1494 1491 1490 1487 1485 1482 1479 1476 1474 1471 1468 1467 1465 1462 1461 1459 1458 1456 1455 1453 1452 1451 1450 1449 1448 1446 1446 1445 1445 1445 1445 1445 1445 1445 1445 1446 1446 1446 1446 1447 1447